TEJ605 MDPC-SCEL

Flight info

Callsign TEJ605
Flight time N/A
Altitude 34000
Route VESKA2T VESKA DCT AMBAS DCT TIPGA DCT UGOSA DCT ELB DCT XOGEN DCT GIR UL305 JCL UL302 TOY UV208 SIMOK SIMOK7B
Aircraft B38M/M-SDE1FGHILORVWXY/HB1

Departure

Time 2026-05-06 05:11
Airport Punta Cana International Airport (MDPC)

Arrival

Time N/A
Airport Comodoro Arturo Merino Benítez International Airport (SCEL)
Time Latitude Longitude Altitude Speed Heading
2026-05-06 05:00 18.56368 -68.36511 53 ft 2 kts 175°
2026-05-06 05:00 18.56393 -68.36513 37 ft 4 kts 175°
2026-05-06 05:00 18.56415 -68.36515 48 ft 4 kts 182°
2026-05-06 05:01 18.56440 -68.36508 49 ft 4 kts 216°
2026-05-06 05:01 18.56454 -68.36488 49 ft 4 kts 262°
2026-05-06 05:01 18.56456 -68.36463 51 ft 2 kts 265°
2026-05-06 05:01 18.56456 -68.36462 51 ft 2 kts 265°
2026-05-06 05:06 18.56455 -68.36467 53 ft 2 kts 265°
2026-05-06 05:06 18.56454 -68.36483 50 ft 3 kts 265°
2026-05-06 05:06 18.56452 -68.36510 53 ft 4 kts 266°
2026-05-06 05:06 18.56453 -68.36546 53 ft 6 kts 274°
2026-05-06 05:07 18.56463 -68.36590 50 ft 7 kts 293°
2026-05-06 05:07 18.56494 -68.36633 53 ft 8 kts 309°
2026-05-06 05:07 18.56510 -68.36689 49 ft 9 kts 285°
2026-05-06 05:07 18.56522 -68.36755 51 ft 10 kts 271°
2026-05-06 05:08 18.56517 -68.36830 51 ft 11 kts 264°
2026-05-06 05:08 18.56510 -68.36915 51 ft 12 kts 264°
2026-05-06 05:08 18.56501 -68.37006 53 ft 13 kts 265°
2026-05-06 05:08 18.56493 -68.37107 53 ft 15 kts 265°
2026-05-06 05:09 18.56482 -68.37234 53 ft 20 kts 264°
2026-05-06 05:09 18.56469 -68.37382 53 ft 21 kts 265°
2026-05-06 05:09 18.56457 -68.37536 53 ft 22 kts 265°
2026-05-06 05:09 18.56444 -68.37693 53 ft 18 kts 266°
2026-05-06 05:10 18.56490 -68.37781 53 ft 15 kts 345°
2026-05-06 05:10 18.56583 -68.37792 52 ft 8 kts 356°
2026-05-06 05:10 18.56608 -68.37776 54 ft 4 kts 65°
2026-05-06 05:10 18.56616 -68.37718 54 ft 22 kts 85°
2026-05-06 05:11 18.56655 -68.37266 53 ft 100 kts 85°
2026-05-06 05:11 18.56740 -68.36287 54 ft 166 kts 85°
2026-05-06 05:11 18.56870 -68.34918 353 ft 200 kts 86°
2026-05-06 05:11 18.57045 -68.33426 1024 ft 207 kts 82°
2026-05-06 05:12 18.57267 -68.31868 1715 ft 223 kts 86°
2026-05-06 05:12 18.57173 -68.30195 2335 ft 237 kts 110°
2026-05-06 05:12 18.56261 -68.28716 2993 ft 248 kts 135°
2026-05-06 05:12 18.54988 -68.27488 3793 ft 257 kts 139°
2026-05-06 05:13 18.53340 -68.26765 4677 ft 264 kts 174°
2026-05-06 05:13 18.51502 -68.27062 5478 ft 277 kts 200°
2026-05-06 05:13 18.49864 -68.28131 6405 ft 279 kts 218°
2026-05-06 05:13 18.48384 -68.29487 7205 ft 284 kts 220°
2026-05-06 05:14 18.46911 -68.30891 8018 ft 287 kts 221°
2026-05-06 05:14 18.45437 -68.32331 8812 ft 291 kts 221°
2026-05-06 05:14 18.43951 -68.33802 9622 ft 294 kts 222°
2026-05-06 05:14 18.42477 -68.35272 10316 ft 301 kts 223°
2026-05-06 05:15 18.40917 -68.36837 10654 ft 320 kts 223°
2026-05-06 05:15 18.39259 -68.38505 10906 ft 340 kts 223°
2026-05-06 05:15 18.37501 -68.40275 11127 ft 359 kts 223°
2026-05-06 05:15 18.35664 -68.42125 11449 ft 372 kts 223°
2026-05-06 05:16 18.33788 -68.44015 12072 ft 374 kts 223°
2026-05-06 05:16 18.31901 -68.45914 12661 ft 377 kts 223°
2026-05-06 05:16 18.29998 -68.47829 13278 ft 379 kts 223°
2026-05-06 05:16 18.28110 -68.49728 13857 ft 382 kts 223°
2026-05-06 05:17 18.26183 -68.51668 14354 ft 385 kts 224°
2026-05-06 05:17 18.24242 -68.53619 14868 ft 387 kts 224°
2026-05-06 05:17 18.22292 -68.55578 15370 ft 389 kts 224°
2026-05-06 05:17 18.20328 -68.57551 15858 ft 392 kts 224°
2026-05-06 05:18 18.18354 -68.59534 16302 ft 394 kts 224°
2026-05-06 05:18 18.16361 -68.61534 16774 ft 397 kts 224°
2026-05-06 05:18 18.14357 -68.63546 17231 ft 400 kts 224°
2026-05-06 05:18 18.12366 -68.65544 17676 ft 402 kts 225°
2026-05-06 05:19 18.10335 -68.67581 18121 ft 404 kts 225°
2026-05-06 05:19 18.08296 -68.69625 18536 ft 407 kts 225°
2026-05-06 05:19 18.06243 -68.71683 18895 ft 409 kts 225°
2026-05-06 05:19 18.04174 -68.73756 19234 ft 412 kts 225°
2026-05-06 05:20 18.02094 -68.75840 19572 ft 415 kts 225°
2026-05-06 05:20 17.99999 -68.77938 19923 ft 417 kts 225°
2026-05-06 05:20 17.97888 -68.80051 20263 ft 420 kts 225°
2026-05-06 05:20 17.95770 -68.82169 20603 ft 422 kts 225°
2026-05-06 05:21 17.93634 -68.84305 20932 ft 425 kts 225°
2026-05-06 05:21 17.91518 -68.86421 21256 ft 427 kts 225°
2026-05-06 05:21 17.89357 -68.88581 21565 ft 430 kts 225°
2026-05-06 05:21 17.87183 -68.90752 21884 ft 433 kts 226°
2026-05-06 05:22 17.84998 -68.92934 22202 ft 435 kts 226°
2026-05-06 05:22 17.82799 -68.95129 22518 ft 437 kts 226°
2026-05-06 05:22 17.80588 -68.97336 22818 ft 440 kts 226°
2026-05-06 05:22 17.78365 -68.99553 23111 ft 442 kts 226°
2026-05-06 05:23 17.76127 -69.01784 23402 ft 445 kts 226°
2026-05-06 05:23 17.73876 -69.04029 23687 ft 447 kts 226°
2026-05-06 05:23 17.69379 -69.08509 24200 ft 450 kts 226°
2026-05-06 05:24 17.67106 -69.10772 24453 ft 452 kts 226°
2026-05-06 05:24 17.64819 -69.13049 24709 ft 453 kts 226°
2026-05-06 05:24 17.62531 -69.15326 24959 ft 455 kts 226°
2026-05-06 05:24 17.60231 -69.17614 25210 ft 457 kts 226°
2026-05-06 05:25 17.57922 -69.19909 25458 ft 458 kts 226°
2026-05-06 05:25 17.55607 -69.22210 25703 ft 460 kts 226°
2026-05-06 05:25 17.53315 -69.24487 25950 ft 461 kts 226°
2026-05-06 05:25 17.50985 -69.26802 26189 ft 463 kts 226°
2026-05-06 05:26 17.48647 -69.29123 26424 ft 464 kts 226°
2026-05-06 05:26 17.46299 -69.31453 26658 ft 466 kts 226°
2026-05-06 05:26 17.43943 -69.33791 26892 ft 467 kts 226°
2026-05-06 05:26 17.41582 -69.36132 27119 ft 469 kts 226°
2026-05-06 05:27 17.39209 -69.38484 27344 ft 470 kts 226°
2026-05-06 05:27 17.36832 -69.40840 27568 ft 472 kts 226°
2026-05-06 05:27 17.34445 -69.43204 27798 ft 473 kts 226°
2026-05-06 05:27 17.32083 -69.45543 28006 ft 475 kts 226°
2026-05-06 05:28 17.29678 -69.47923 28220 ft 476 kts 226°
2026-05-06 05:28 17.27270 -69.50306 28428 ft 478 kts 226°
2026-05-06 05:28 17.24851 -69.52699 28639 ft 479 kts 226°
2026-05-06 05:28 17.22427 -69.55096 28841 ft 481 kts 226°
2026-05-06 05:29 17.19996 -69.57499 29063 ft 481 kts 226°
2026-05-06 05:29 17.17562 -69.59903 29348 ft 481 kts 225°
2026-05-06 05:29 17.15133 -69.62302 29654 ft 480 kts 226°
2026-05-06 05:29 17.12733 -69.64672 29946 ft 480 kts 225°
2026-05-06 05:30 17.10312 -69.67061 30226 ft 479 kts 226°
2026-05-06 05:30 17.07891 -69.69449 30490 ft 478 kts 225°
2026-05-06 05:30 17.05478 -69.71829 30763 ft 477 kts 225°
2026-05-06 05:30 17.03066 -69.74206 31039 ft 475 kts 225°
2026-05-06 05:31 17.00664 -69.76573 31320 ft 474 kts 225°
2026-05-06 05:31 16.98268 -69.78932 31600 ft 473 kts 225°
2026-05-06 05:31 16.95879 -69.81285 31887 ft 472 kts 225°
2026-05-06 05:31 16.93527 -69.83601 32169 ft 470 kts 225°
2026-05-06 05:32 16.91150 -69.85939 32473 ft 468 kts 225°
2026-05-06 05:32 16.88786 -69.88265 32803 ft 466 kts 225°
2026-05-06 05:32 16.86428 -69.90582 33108 ft 465 kts 225°
2026-05-06 05:32 16.84078 -69.92893 33409 ft 463 kts 225°
2026-05-06 05:33 16.81735 -69.95195 33707 ft 462 kts 225°
2026-05-06 05:33 16.79400 -69.97488 33979 ft 461 kts 225°
2026-05-06 05:33 16.74736 -70.02067 34033 ft 459 kts 225°
2026-05-06 05:34 16.70120 -70.06595 34042 ft 459 kts 225°
2026-05-06 05:34 16.65470 -70.11154 34043 ft 459 kts 225°
2026-05-06 05:35 16.60816 -70.15713 34031 ft 459 kts 225°
2026-05-06 05:35 16.56164 -70.20266 34037 ft 459 kts 225°
2026-05-06 05:36 16.51542 -70.24788 34035 ft 459 kts 225°
2026-05-06 05:36 16.46884 -70.29341 34037 ft 459 kts 225°
2026-05-06 05:37 16.42226 -70.33892 34029 ft 459 kts 225°
2026-05-06 05:37 16.37563 -70.38443 34030 ft 459 kts 225°
2026-05-06 05:38 16.32932 -70.42962 34031 ft 460 kts 225°
2026-05-06 05:38 16.28263 -70.47513 34024 ft 460 kts 225°
2026-05-06 05:39 16.23595 -70.52060 34026 ft 460 kts 225°
2026-05-06 05:39 16.18929 -70.56603 34028 ft 459 kts 225°
2026-05-06 05:40 16.14261 -70.61146 34025 ft 460 kts 225°
2026-05-06 05:40 16.09619 -70.65660 34024 ft 460 kts 225°
2026-05-06 05:41 16.04946 -70.70200 34023 ft 460 kts 225°
2026-05-06 05:41 16.00088 -70.74512 34003 ft 462 kts 211°
2026-05-06 05:42 15.94090 -70.76992 34015 ft 467 kts 202°
2026-05-06 05:42 15.87953 -70.79215 34020 ft 467 kts 201°
2026-05-06 05:43 15.81843 -70.81366 34014 ft 467 kts 201°
2026-05-06 05:43 15.75688 -70.83523 34015 ft 467 kts 201°
2026-05-06 05:44 15.69541 -70.85674 34016 ft 466 kts 201°
2026-05-06 05:44 15.63396 -70.87823 34017 ft 466 kts 201°
2026-05-06 05:45 15.57292 -70.89957 34014 ft 466 kts 201°
2026-05-06 05:45 15.51148 -70.92103 34014 ft 466 kts 201°
2026-05-06 05:46 15.45008 -70.94246 34010 ft 465 kts 201°
2026-05-06 05:46 15.38878 -70.96385 34012 ft 465 kts 201°
2026-05-06 05:47 15.32789 -70.98508 34011 ft 465 kts 201°
2026-05-06 05:47 15.26664 -71.00643 34009 ft 464 kts 201°
2026-05-06 05:48 15.20536 -71.02776 34011 ft 465 kts 201°
2026-05-06 05:48 15.14405 -71.04910 34008 ft 465 kts 201°
2026-05-06 05:49 15.08320 -71.07026 34007 ft 464 kts 201°
2026-05-06 05:49 15.02199 -71.09154 34009 ft 464 kts 201°
2026-05-06 05:50 14.96080 -71.11280 34004 ft 464 kts 201°
2026-05-06 05:50 14.89965 -71.13403 34002 ft 463 kts 201°
2026-05-06 05:51 14.83851 -71.15524 34004 ft 463 kts 201°
2026-05-06 05:51 14.77776 -71.17631 33999 ft 464 kts 201°
2026-05-06 05:52 14.71664 -71.19749 33998 ft 463 kts 201°
2026-05-06 05:52 14.65551 -71.21866 33995 ft 463 kts 201°
2026-05-06 05:53 14.59439 -71.23982 33998 ft 463 kts 201°
2026-05-06 05:53 14.53369 -71.26082 33994 ft 463 kts 201°
2026-05-06 05:54 14.47258 -71.28195 33992 ft 463 kts 201°
2026-05-06 05:54 14.41139 -71.30309 33994 ft 464 kts 201°
2026-05-06 05:55 14.35020 -71.32422 33989 ft 464 kts 201°
2026-05-06 05:55 14.28936 -71.34522 33987 ft 464 kts 201°
2026-05-06 05:56 14.22814 -71.36634 33982 ft 464 kts 201°
2026-05-06 05:56 14.16687 -71.38747 33987 ft 464 kts 201°
2026-05-06 05:57 14.10562 -71.40856 33980 ft 464 kts 201°
2026-05-06 05:57 14.04470 -71.42955 33982 ft 465 kts 201°
2026-05-06 05:58 13.98338 -71.45065 33984 ft 465 kts 201°
2026-05-06 05:58 13.92200 -71.47176 33986 ft 465 kts 201°
2026-05-06 05:59 13.86060 -71.49287 33984 ft 465 kts 201°
2026-05-06 05:59 13.79919 -71.51397 33980 ft 465 kts 201°
2026-05-06 06:00 13.73816 -71.53493 33975 ft 466 kts 201°
2026-05-06 06:00 13.67671 -71.55602 33978 ft 465 kts 201°
2026-05-06 06:01 13.61522 -71.57711 33973 ft 466 kts 201°
2026-05-06 06:01 13.55379 -71.59817 33971 ft 466 kts 201°
2026-05-06 06:02 13.49269 -71.61911 33971 ft 466 kts 200°
2026-05-06 06:02 13.43122 -71.64016 33973 ft 466 kts 201°
2026-05-06 06:03 13.36972 -71.66121 33965 ft 466 kts 201°
2026-05-06 06:03 13.30818 -71.68226 33967 ft 466 kts 201°
2026-05-06 06:04 13.24705 -71.70316 33966 ft 467 kts 201°
2026-05-06 06:04 13.18539 -71.72424 33974 ft 467 kts 201°
2026-05-06 06:05 13.12371 -71.74530 33961 ft 468 kts 201°
2026-05-06 06:05 13.06190 -71.76640 33964 ft 468 kts 201°
2026-05-06 06:06 13.00050 -71.78735 33959 ft 468 kts 201°
2026-05-06 06:06 12.93871 -71.80842 33954 ft 468 kts 201°
2026-05-06 06:07 12.87685 -71.82951 33955 ft 469 kts 201°
2026-05-06 06:07 12.81527 -71.85118 33944 ft 466 kts 207°
2026-05-06 06:08 12.75771 -71.88157 33948 ft 466 kts 210°
2026-05-06 06:08 12.70054 -71.91200 33949 ft 466 kts 210°
2026-05-06 06:09 12.64303 -71.94268 33946 ft 466 kts 210°
2026-05-06 06:09 12.58546 -71.97337 33947 ft 467 kts 210°
2026-05-06 06:10 12.52791 -72.00404 33940 ft 466 kts 210°
2026-05-06 06:10 12.47075 -72.03448 33943 ft 466 kts 210°
2026-05-06 06:11 12.41317 -72.06514 33938 ft 466 kts 209°
2026-05-06 06:11 12.35560 -72.09577 33934 ft 466 kts 209°
2026-05-06 06:12 12.29803 -72.12638 33933 ft 467 kts 209°
2026-05-06 06:12 12.24076 -72.15682 33936 ft 467 kts 209°
2026-05-06 06:13 12.18314 -72.18745 33930 ft 467 kts 209°
2026-05-06 06:13 12.12545 -72.21808 33932 ft 467 kts 209°
2026-05-06 06:14 12.06775 -72.24871 33934 ft 467 kts 209°
2026-05-06 06:14 12.01001 -72.27934 33926 ft 468 kts 209°
2026-05-06 06:15 11.95260 -72.30978 33925 ft 468 kts 209°
2026-05-06 06:15 11.89473 -72.34045 33924 ft 469 kts 209°
2026-05-06 06:16 11.83685 -72.37111 33926 ft 469 kts 209°
2026-05-06 06:16 11.77896 -72.40176 33930 ft 469 kts 209°
2026-05-06 06:17 11.72151 -72.43218 33921 ft 468 kts 209°
2026-05-06 06:17 11.66450 -72.46417 33927 ft 468 kts 212°
2026-05-06 06:18 11.60826 -72.49752 33926 ft 468 kts 211°
2026-05-06 06:18 11.55178 -72.53076 33928 ft 468 kts 211°
2026-05-06 06:19 11.49575 -72.56373 33927 ft 468 kts 211°
2026-05-06 06:19 11.43928 -72.59693 33927 ft 469 kts 211°
2026-05-06 06:20 11.38272 -72.63017 33928 ft 469 kts 211°
2026-05-06 06:20 11.32614 -72.66341 33930 ft 470 kts 211°
2026-05-06 06:21 11.26988 -72.69644 33931 ft 470 kts 211°
2026-05-06 06:21 11.21324 -72.72969 33939 ft 470 kts 211°
2026-05-06 06:22 11.15648 -72.76299 33940 ft 471 kts 211°
2026-05-06 06:22 11.09975 -72.79625 33941 ft 471 kts 211°
2026-05-06 06:23 11.04337 -72.82930 33947 ft 471 kts 211°
2026-05-06 06:23 10.98651 -72.86261 33949 ft 472 kts 211°
2026-05-06 06:24 10.92962 -72.89591 33955 ft 472 kts 211°
2026-05-06 06:24 10.87271 -72.92923 33957 ft 473 kts 211°
2026-05-06 06:25 10.81570 -72.96258 33964 ft 473 kts 211°
2026-05-06 06:26 10.73051 -73.01240 33965 ft 473 kts 211°
2026-05-06 06:26 10.67344 -73.04575 33963 ft 473 kts 211°
2026-05-06 06:27 10.61629 -73.07913 33956 ft 473 kts 211°
2026-05-06 06:27 10.55956 -73.11226 33949 ft 474 kts 211°